Location: Pedholt
(56.0260°N, 10.2097°E)
Time: 23:06:00
(UTC+00:00)

Transit 2A Rocket - Pass Details

Date: 30 July 2021
Orbit: 586 x 917 km, 66.7° (Epoch: 26 September)

Event Time Altitude Azimuth Distance (km) Brightness Sun altitude
Rises 23:52:44 0° 308° (NW) 3,270 8.7 -15.5°
Reaches altitude 10° 23:56:16 10° 283° (WNW) 2,409 7.6 -15.4°
Maximum altitude 23:58:59 14° 254° (WSW) 2,190 7.1 -15.4°
Enters shadow 00:00:51 12° 233° (SW) 2,343 7.1 -15.3°
Drops below altitude 10° 00:01:46 10° 225° (SW) 2,498 - -15.3°
Sets 00:05:35 0° 201° (SSW) 3,483 - -15.2°
